SEASAT 1

Last updated on Mon Sep 21 2026 00:02:08 GMT+0000 (Coordinated Universal Time)

1 10967U 78064A 26263.48259255 .00000087 00000+0 62589-4 0 9995 2 10967 108.0074 174.3163 0002295 297.6881 62.4032 14.46289947534675
UTC large
Height (km)
Speed (km/s)
/
Latitude / Longitude
Inclination (degrees)
Orbital Period (minutes)
Azimuth
Elevation
Range (km)
Doppler Factor

Next 0 passes for location: London (51.5072 / 0.1276)

No passes found over London.
SEASAT 1